When you browse on this site, cookies collect data to enhance your experience and personalize the content and advertising you see.
Visit our Privacy Policy to learn more. By continuing to use the site, you agree to this use of cookies and data.
  • In Spain
  • List of Countries
  • For 7 days
  • Water Temperature
  • Satellite Maps
  • Weather Map
  • Weather Widgets
  • user-avatar
    Login

    Hourly Weather Lingere

    Today, 23 May, Thursday

    Time Temperature Precipitation Wind Pressure Humidity
    00:00 +32°C° 0 mm 2 mps 726 mmHg 34%
    01:00 +32°C° 0 mm 2 mps 726 mmHg 39%
    02:00 +31°C° 0 mm 2 mps 726 mmHg 40%
    03:00 +31°C° 0 mm 2 mps 726 mmHg 42%
    04:00 +30°C° 0 mm 2 mps 725 mmHg 44%
    05:00 +31°C° 0 mm 2 mps 726 mmHg 40%
    06:00 +32°C° 0 mm 2 mps 726 mmHg 37%
    07:00 +34°C° 0 mm 2 mps 726 mmHg 34%
    08:00 +37°C° 0 mm 2 mps 727 mmHg 26%
    09:00 +40°C° 0 mm 2 mps 727 mmHg 18%
    10:00 +42°C° 0 mm 2 mps 728 mmHg 10%
    11:00 +45°C° 0 mm 3 mps 727 mmHg 8%
    12:00 +47°C° 0 mm 5 mps 727 mmHg 6%
    13:00 +48°C° 0 mm 6 mps 726 mmHg 4%
    14:00 +48°C° 0 mm 6 mps 726 mmHg 4%
    15:00 +48°C° 0 mm 6 mps 725 mmHg 3%
    16:00 +48°C° 0 mm 6 mps 724 mmHg 3%
    17:00 +45°C° 0 mm 5 mps 724 mmHg 4%
    18:00 +41°C° 0 mm 4 mps 724 mmHg 4%
    19:00 +38°C° 0 mm 3 mps 724 mmHg 5%
    20:00 +37°C° 0 mm 3 mps 725 mmHg 5%
    21:00 +36°C° 0 mm 3 mps 725 mmHg 5%
    22:00 +36°C° 0 mm 3 mps 726 mmHg 6%
    23:00 +35°C° 0 mm 3 mps 725 mmHg 6%

    Tomorrow, 24 May, Friday

    Time Temperature Precipitation Wind Pressure Humidity
    00:00 +34°C° 0 mm 3 mps 725 mmHg 6%
    01:00 +32°C° 0 mm 2 mps 725 mmHg 6%
    02:00 +31°C° 0 mm 2 mps 724 mmHg 7%
    03:00 +30°C° 0 mm 1 mps 724 mmHg 9%
    04:00 +28°C° 0 mm 1 mps 724 mmHg 10%
    05:00 +30°C° 0 mm 1 mps 724 mmHg 9%
    06:00 +32°C° 0 mm 2 mps 725 mmHg 8%
    07:00 +34°C° 0 mm 2 mps 726 mmHg 8%
    08:00 +37°C° 0 mm 2 mps 726 mmHg 6%
    09:00 +40°C° 0 mm 2 mps 727 mmHg 5%
    10:00 +44°C° 0 mm 3 mps 727 mmHg 4%
    11:00 +45°C° 0 mm 3 mps 726 mmHg 4%
    12:00 +47°C° 0 mm 4 mps 726 mmHg 3%
    13:00 +49°C° 0 mm 5 mps 725 mmHg 3%
    14:00 +49°C° 0 mm 5 mps 725 mmHg 3%
    15:00 +49°C° 0 mm 5 mps 724 mmHg 3%
    16:00 +49°C° 0 mm 5 mps 723 mmHg 3%
    17:00 +45°C° 0 mm 4 mps 723 mmHg 4%
    18:00 +43°C° 0 mm 4 mps 723 mmHg 5%
    19:00 +39°C° 0 mm 3 mps 723 mmHg 5%
    20:00 +38°C° 0 mm 4 mps 724 mmHg 5%
    21:00 +37°C° 0 mm 4 mps 724 mmHg 6%
    22:00 +37°C° 0 mm 4 mps 725 mmHg 6%
    23:00 +35°C° 0 mm 3 mps 725 mmHg 7%

    Day after tomorrow, 25 May, Saturday

    Time Temperature Precipitation Wind Pressure Humidity
    00:00 +34°C° 0 mm 3 mps 724 mmHg 7%
    01:00 +31°C° 0 mm 2 mps 724 mmHg 8%
    02:00 +31°C° 0 mm 2 mps 724 mmHg 9%
    03:00 +30°C° 0 mm 1 mps 724 mmHg 9%
    04:00 +29°C° 0 mm 1 mps 723 mmHg 10%
    05:00 +30°C° 0 mm 1 mps 724 mmHg 9%
    06:00 +32°C° 0 mm 1 mps 725 mmHg 8%
    07:00 +31°C° 0 mm 0 mps 725 mmHg 8%
    08:00 +36°C° 0 mm 1 mps 726 mmHg 6%
    09:00 +40°C° 0 mm 2 mps 726 mmHg 5%
    10:00 +44°C° 0 mm 3 mps 726 mmHg 4%
    11:00 +45°C° 0 mm 4 mps 726 mmHg 4%
    12:00 +48°C° 0 mm 4 mps 725 mmHg 4%
    13:00 +49°C° 0 mm 4 mps 725 mmHg 3%
    14:00 +49°C° 0 mm 4 mps 724 mmHg 3%
    15:00 +49°C° 0 mm 4 mps 724 mmHg 3%
    16:00 +49°C° 0 mm 4 mps 723 mmHg 3%
    17:00 +45°C° 0 mm 4 mps 723 mmHg 5%
    18:00 +42°C° 0 mm 3 mps 724 mmHg 6%
    19:00 +38°C° 0 mm 3 mps 724 mmHg 7%
    20:00 +37°C° 0 mm 3 mps 724 mmHg 11%
    21:00 +36°C° 0 mm 4 mps 724 mmHg 15%
    22:00 +35°C° 0 mm 4 mps 725 mmHg 18%
    23:00 +34°C° 0 mm 4 mps 725 mmHg 18%

    26 May, Sunday

    Time Temperature Precipitation Wind Pressure Humidity
    00:00 +34°C° 0 mm 4 mps 724 mmHg 18%
    01:00 +33°C° 0 mm 4 mps 724 mmHg 19%
    02:00 +33°C° 0 mm 4 mps 724 mmHg 19%
    03:00 +31°C° 0 mm 3 mps 723 mmHg 19%
    04:00 +31°C° 0 mm 3 mps 723 mmHg 19%
    05:00 +31°C° 0 mm 3 mps 724 mmHg 18%
    06:00 +33°C° 0 mm 3 mps 724 mmHg 17%
    07:00 +34°C° 0 mm 4 mps 725 mmHg 17%
    08:00 +37°C° 0 mm 4 mps 725 mmHg 14%
    09:00 +41°C° 0 mm 4 mps 725 mmHg 11%
    10:00 +45°C° 0 mm 5 mps 726 mmHg 8%
    11:00 +45°C° 0 mm 4 mps 725 mmHg 7%
    12:00 +46°C° 0 mm 3 mps 725 mmHg 6%
    13:00 +47°C° 0 mm 2 mps 724 mmHg 5%
    14:00 +47°C° 0 mm 2 mps 724 mmHg 5%
    15:00 +47°C° 0 mm 2 mps 723 mmHg 5%
    16:00 +48°C° 0 mm 2 mps 723 mmHg 4%
    17:00 +45°C° 0 mm 2 mps 723 mmHg 5%
    18:00 +41°C° 0 mm 2 mps 723 mmHg 6%
    19:00 +37°C° 0 mm 1 mps 723 mmHg 7%
    20:00 +37°C° 0 mm 2 mps 723 mmHg 10%
    21:00 +37°C° 0 mm 3 mps 723 mmHg 13%
    22:00 +36°C° 0 mm 4 mps 724 mmHg 16%
    23:00 +35°C° 0 mm 4 mps 723 mmHg 20%

    27 May, Monday

    Time Temperature Precipitation Wind Pressure Humidity
    00:00 +35°C° 0 mm 4 mps 723 mmHg 23%
    01:00 +34°C° 0 mm 4 mps 722 mmHg 26%
    02:00 +33°C° 0 mm 4 mps 722 mmHg 26%
    03:00 +33°C° 0 mm 4 mps 723 mmHg 26%
    04:00 +33°C° 0 mm 4 mps 723 mmHg 25%
    05:00 +33°C° 0 mm 4 mps 723 mmHg 24%
    06:00 +34°C° 0 mm 5 mps 724 mmHg 22%
    07:00 +35°C° 0 mm 6 mps 725 mmHg 20%
    08:00 +38°C° 0 mm 7 mps 725 mmHg 22%
    09:00 +40°C° 0 mm 9 mps 725 mmHg 24%
    10:00 +43°C° 0 mm 10 mps 725 mmHg 26%
    11:00 +45°C° 0 mm 9 mps 725 mmHg 22%
    12:00 +46°C° 0 mm 8 mps 725 mmHg 18%
    13:00 +49°C° 0 mm 7 mps 724 mmHg 14%
    14:00 +48°C° 0 mm 6 mps 724 mmHg 12%
    15:00 +48°C° 0 mm 4 mps 723 mmHg 11%
    16:00 +47°C° 0 mm 2 mps 723 mmHg 10%
    17:00 +45°C° 0 mm 2 mps 723 mmHg 12%
    18:00 +41°C° 0 mm 2 mps 723 mmHg 13%
    19:00 +39°C° 0 mm 2 mps 723 mmHg 15%
    20:00 +38°C° 0 mm 3 mps 723 mmHg 18%
    21:00 +37°C° 0 mm 3 mps 723 mmHg 21%
    22:00 +37°C° 0 mm 4 mps 724 mmHg 24%
    23:00 +36°C° 0 mm 4 mps 723 mmHg 24%

    28 May, Tuesday

    Time Temperature Precipitation Wind Pressure Humidity
    00:00 +36°C° 0 mm 4 mps 723 mmHg 24%
    01:00 +36°C° 0 mm 4 mps 723 mmHg 25%
    02:00 +35°C° 0 mm 4 mps 723 mmHg 27%
    03:00 +34°C° 0 mm 4 mps 723 mmHg 30%
    04:00 +33°C° 0 mm 4 mps 723 mmHg 32%
    05:00 +34°C° 0 mm 5 mps 724 mmHg 35%
    06:00 +34°C° 0 mm 7 mps 725 mmHg 38%
    07:00 +34°C° 0 mm 8 mps 726 mmHg 41%
    08:00 +37°C° 0 mm 9 mps 726 mmHg 37%
    09:00 +40°C° 0 mm 10 mps 726 mmHg 33%
    10:00 +43°C° 0 mm 10 mps 726 mmHg 29%
    11:00 +44°C° 0 mm 10 mps 726 mmHg 27%
    12:00 +45°C° 0 mm 9 mps 725 mmHg 25%
    13:00 +47°C° 0 mm 9 mps 725 mmHg 23%
    14:00 +46°C° 0 mm 7 mps 724 mmHg 20%
    15:00 +47°C° 0 mm 5 mps 724 mmHg 18%
    16:00 +46°C° 0 mm 3 mps 724 mmHg 15%
    17:00 +44°C° 0 mm 4 mps 724 mmHg 18%
    18:00 +43°C° 0 mm 4 mps 724 mmHg 21%
    19:00 +41°C° 0 mm 5 mps 724 mmHg 23%
    20:00 +40°C° 0 mm 5 mps 724 mmHg 27%
    21:00 +39°C° 0 mm 5 mps 725 mmHg 31%
    22:00 +36°C° 0 mm 5 mps 725 mmHg 35%
    23:00 +36°C° 0 mm 5 mps 725 mmHg 35%
    Show more